SCP
-0 0 0 0 0 0 0 0 0 0 0 0 0 0 0 0 0 -0 0 -0 -0 0 0 0 0 0 0 0 0 0 0 0 0 0 0 0 0 0 0 0 0 0 0 0 0
0 0 0 0 -0 0 0 0 0 0 0 0 0 0 0 -0 0 -0 0 0 -0 0 0 0 0 0 0 0 0 0 0 0 0 0 0 0 0 0 0 0 0 0 0 0 0
0 0 -0 -0 -0 0 0 0 0 0 0 0 0 0 0 0 0 -0 -0 0 -0 -0 0 0 0 0 0 0 0 0 0 0 0 0 0 0 0 0 0 0 0 0 0 0 0
-0 -0 -0 -0 0 0 0 0 0 0 -0 0 0 0 0 0 0 0 0 0 -0 -0 0 0 0 0 0 0 0 0 0 0 0 0 0 0 0 0 0 0 0 0 0 0 0
-0 -0 -0 -0 0 0 0 0 0 -0 0 0 0 0 0 0 0 0 0 0 0 -0 0 0 0 0 0 0 0 0 0 0 0 0 0 0 0 0 0 0 0 0 0 0 0
-0 -0 -0 0 0 -0 0 0 0 0 -0 0 0 0 0 0 0 0 -0 -0 -0 -0 0 0 0 0 0 0 0 0 0 0 0 0 0 0 0 0 0 0 0 0 0 0 0
-0 -0 -0 0 0 -0 -0 0 0 0 0 0 0 0 0 0 0 0 -0 -0 -0 -0 -0 0 0 0 0 0 0 0 0 0 0 0 0 0 0 0 0 0 0 0 0 0 0
-0 -0 -0 0 0 0 0 -0 0 0 0 0 0 0 0 -0 -0 0 -0 -0 -0 0 -0 0 0 0 0 0 0 0 0 0 0 0 0 0 0 0 0 0 0 0 0 0 0
-0 -0 0 -0 0 0 0 0 0 0 0 0 0 0 0 0 0 -0 -0 -0 -0 -0 -0 0 0 0 0 0 0 0 0 0 0 0 0 0 0 0 0 0 0 0 0 0 0
-0 -0 0 -0 -0 0 0 0 0 0 0 0 0 0 -0 0 -0 0 0 0 -0 -0 0 0 0 0 0 0 0 0 0 0 0 0 0 0 0 0 0 0 0 0 0 0 0
-0 -0 -0 0 0 0 0 0 0 0 0 0 0 0 -0 0 0 0 0 0 0 -0 0 0 0 0 0 0 0 0 0 0 0 0 0 0 0 0 0 0 0 0 0 0 0
-0 -0 -0 0 0 0 0 0 0 0 0 0 0 0 0 0 0 0 0 0 0 -0 0 0 0 0 0 0 0 0 0 0 0 0 0 0 -0 0 0 -0 0 0 0 0 0
-0 -0 -0 -0 0 0 0 0 0 0 0 0 0 0 -0 0 0 0 0 0 -0 0 0 0 0 0 0 0 0 0 0 0 0 0 0 0 0 0 0 0 0 0 0 0 0
-0 -0 -0 -0 0 0 0 0 0 0 0 0 0 0 0 0 0 0 0 0 0 0 -0 0 0 0 0 0 0 0 0 0 0 0 0 0 0 0 0 0 0 0 0 0 0
0 0 0 0 0 0 0 0 0 0 0 0 -0 0 0 -0 0 0 0 0 0 0 0 0 0 0 0 0 0 0 0 0 0 0 0 0 0 0 0 0 0 0 0 0 0
0 0 0 0 0 0 0 0 0 0 0 -0 0 -0 0 0 0 0 0 0 0 0 0 0 0 0 0 0 0 0 0 0 0 0 0 0 0 -0 0 0 0 0 0 0 0
0 0 0 0 0 0 0 0 0 0 0 -0 -0 0 0 0 -0 0 0 0 0 0 0 0 0 0 0 0 0 0 0 0 0 0 0 0 0 0 0 0 0 0 0 0 0
0 0 0 0 0 0 0 0 0 0 0 -0 -0 -0 -0 -0 0 0 0 0 0 0 0 0 0 0 0 0 0 0 0 0 0 0 0 0 0 0 0 -0 -0 0 0 0 0
0 0 0 0 0 0 0 0 0 0 0 0 -0 -0 -0 0 0 0 0 0 0 0 0 0 0 0 0 0 0 0 0 0 0 0 0 0 0 0 -0 0 0 0 0 0 0
0 0 0 0 0 0 0 0 0 0 0 0 -0 -0 0 0 0 0 0 0 0 0 0 0 0 0 0 0 0 0 0 0 0 0 0 0 0 -0 0 0 0 0 0 0 0
0 0 0 0 0 0 0 -0 0 0 0 0 0 0 -0 0 0 0 0 0 0 0 0 0 0 0 0 0 0 0 0 0 0 0 0 0 0 0 0 0 0 0 0 0 0
0 0 0 0 0 0 0 0 0 0 0 0 0 0 0 -0 0 0 0 0 0 0 0 0 0 0 0 0 0 0 0 0 0 0 0 0 0 0 0 0 0 0 0 0 0
0 0 0 0 0 0 0 0 0 0 0 0 -0 0 0 0 0 0 0 0 0 0 0 0 0 0 0 0 0 0 0 0 0 0 0 0 0 0 0 0 0 0 0 0 0
0 0 0 0 0 0 0 0 0 0 0 0 0 0 0 0 0 0 0 0 0 0 0 0 0 0 0 0 0 0 0 0 0 0 0 0 0 0 0 0 0 0 0 0 0
0 0 0 0 0 0 0 0 0 0 0 0 0 0 0 0 0 0 0 0 0 0 0 0 0 0 0 0 0 0 0 0 0 0 0 0 0 0 0 0 0 0 0 0 0
0 0 0 0 0 0 0 0 0 0 0 0 0 0 0 0 0 0 0 0 0 0 0 0 0 0 0 0 0 0 0 0 0 0 0 0 0 0 0 0 0 0 0 0 0
0 0 0 0 0 0 0 0 0 0 0 0 0 0 0 0 0 0 0 0 0 0 0 0 0 0 0 0 0 0 0 0 0 0 0 0 0 0 0 0 0 0 0 0 0
Wind_Speed_500mb
37 37 32 28 28 27 24 21 21 21 20 24 26 21 25 25 40 43 42 48 47 53 37 67 60 55 60 49 28 33 8 6 8 9 9 5 4 5 8 26 10 12 19 20 60
30 34 36 36 33 30 27 24 25 29 31 27 29 33 35 30 40 55 58 46 51 67 42 86 70 58 33 27 24 11 15 15 1 4 7 10 2 12 8 14 5 10 16 39 62
28 33 37 41 39 34 31 31 31 33 31 35 34 33 33 29 26 46 32 44 53 73 43 79 82 58 22 26 15 6 26 13 7 3 10 5 3 7 18 6 10 16 35 60 63
24 33 37 41 38 34 29 30 33 29 30 30 20 24 25 27 13 3 11 33 48 63 70 30 75 36 15 22 28 14 27 27 19 2 17 1 4 5 10 5 8 11 36 66 64
23 33 36 37 37 36 34 35 29 26 28 24 18 18 28 31 33 22 16 32 43 52 53 42 75 46 24 29 23 10 11 31 28 12 25 14 3 6 6 3 8 20 43 62 59
24 29 33 35 38 36 33 36 29 29 21 16 22 15 30 19 32 33 32 25 51 54 48 46 65 52 37 28 24 17 18 20 18 14 16 7 3 3 2 1 13 29 46 56 53
23 25 29 32 39 39 31 32 22 22 12 19 11 23 25 33 21 21 33 22 33 57 31 45 64 43 45 15 27 29 15 6 10 6 5 3 5 3 1 5 16 31 43 51 48
21 25 25 29 36 47 30 17 22 25 21 16 16 23 16 24 44 40 26 27 38 74 50 56 61 43 21 49 15 10 9 17 7 13 1 6 8 3 7 11 17 26 38 43 45
21 23 24 24 29 39 39 22 28 34 29 11 14 23 11 19 32 43 31 30 39 46 50 41 73 15 28 20 11 7 9 20 8 7 7 4 5 6 12 13 18 24 34 38 40
22 23 24 24 24 33 38 38 23 13 20 10 13 13 14 13 27 20 26 36 53 52 49 19 11 9 12 25 29 16 13 11 9 18 7 8 8 6 14 20 23 27 32 33 41
26 25 24 26 28 35 36 28 11 2 11 6 17 16 33 24 13 22 25 58 52 45 22 1 6 22 36 27 16 20 13 15 4 10 9 14 19 19 28 23 27 31 29 34 39
29 29 26 28 29 27 28 16 11 9 14 13 18 21 22 25 15 46 29 14 31 18 15 9 3 6 21 16 17 31 26 8 7 7 4 5 29 14 19 18 40 45 41 39 36
32 33 31 26 27 21 23 23 18 10 3 12 14 14 24 19 18 29 17 22 29 21 29 9 1 9 11 16 20 10 28 12 11 10 5 5 13 19 12 25 31 42 46 41 44
32 31 34 27 15 24 15 28 17 7 6 14 13 10 22 10 9 30 15 13 7 14 20 4 4 28 13 13 11 10 13 22 28 18 8 12 12 14 22 20 19 52 53 49 51
35 33 30 28 22 18 20 25 13 1 10 15 15 18 15 8 6 21 27 28 13 12 10 4 3 21 30 18 23 0 3 24 15 12 4 10 6 6 8 13 24 46 63 58 54
32 32 32 27 24 21 21 21 2 10 5 13 10 14 9 14 9 14 14 22 9 14 23 7 5 7 6 9 9 24 11 15 8 6 11 14 16 9 12 20 18 40 67 72 58
32 30 31 29 22 23 24 9 10 11 6 12 7 10 7 11 11 13 10 10 5 9 5 5 7 5 13 14 7 10 13 3 2 7 12 4 14 23 14 16 23 32 53 71 63
37 34 28 29 24 21 21 9 12 7 10 3 6 5 14 15 8 10 5 7 11 9 7 6 5 13 12 6 6 13 12 9 11 9 5 3 13 11 8 21 40 38 48 67 64
34 31 32 22 21 13 9 8 12 11 4 5 3 8 6 5 7 5 6 6 7 6 7 8 4 6 11 8 5 5 6 6 9 4 5 8 10 21 2 10 8 16 40 60 69
34 22 35 19 8 5 7 8 4 5 4 1 2 0 5 8 10 9 7 5 4 11 11 4 10 6 6 7 21 9 7 8 1 9 9 6 8 9 8 9 11 15 32 55 67
35 12 13 9 5 1 5 12 7 8 4 6 6 3 4 1 1 5 5 5 3 5 8 5 6 4 2 1 8 5 4 5 3 3 6 3 9 10 13 12 15 22 41 59 72
28 4 15 17 1 3 4 9 1 5 6 5 4 6 8 9 4 3 3 2 3 3 4 2 7 6 3 1 4 4 3 7 5 8 5 3 11 6 15 15 17 29 45 56 68
15 11 20 24 5 4 7 4 5 5 7 5 10 8 5 7 3 5 4 3 5 2 5 6 1 7 3 4 5 7 9 5 1 5 9 8 8 2 9 6 11 30 43 56 67
18 5 7 18 7 13 7 5 7 5 6 4 5 5 8 9 6 11 8 0 5 5 6 4 3 7 9 7 10 10 17 23 8 6 8 11 13 15 10 7 8 22 38 53 66
23 9 12 8 9 8 8 8 7 6 6 4 4 11 11 6 3 9 4 4 3 4 5 6 4 2 5 9 1 5 9 26 24 20 14 16 23 30 7 11 11 24 34 48 66
22 12 12 14 13 12 8 14 19 8 14 9 9 8 9 10 11 13 10 7 7 5 5 4 3 3 6 7 9 5 12 20 31 16 30 24 31 19 39 14 15 24 38 55 70
39 28 19 20 10 10 11 13 18 15 14 8 16 9 6 9 10 12 14 15 8 11 6 5 8 5 8 8 6 11 20 27 12 10 17 17 17 3 9 17 38 45 46 59 67
Wind_Direction_500mb
34 27 17 5 352 347 358 349 348 339 327 322 318 305 287 278 277 270 257 238 237 222 187 183 177 177 185 182 172 168 111 201 209 196 124 320 145 158 128 145 162 174 162 175 159
21 12 6 352 344 344 340 329 321 315 311 302 289 286 286 289 271 276 259 238 236 229 242 178 173 163 160 164 162 148 174 199 218 251 108 298 80 165 152 150 139 153 171 166 164
11 6 1 357 348 338 328 326 322 318 311 308 285 272 264 266 281 267 271 238 236 233 239 189 174 168 150 161 139 140 189 157 190 266 117 23 213 173 149 226 200 184 163 167 170
357 356 359 359 355 350 342 336 332 325 325 327 301 281 232 214 224 213 234 214 226 233 235 214 177 177 149 154 154 145 190 156 174 41 102 201 200 154 188 173 206 196 178 172 177
342 350 356 358 359 357 356 346 331 337 332 300 305 287 207 199 235 238 293 225 220 227 238 245 180 181 167 160 134 135 146 149 139 115 67 132 173 165 162 300 195 177 177 180 183
345 349 355 1 358 354 352 349 334 331 332 323 282 225 181 229 246 245 264 243 216 233 237 269 184 181 158 152 160 148 135 137 156 112 83 106 332 219 73 148 158 175 181 185 189
345 349 356 0 358 355 333 341 348 323 320 334 319 220 226 230 235 245 266 254 234 226 244 282 177 167 145 114 120 131 118 102 189 130 98 179 142 172 101 144 162 177 188 191 190
335 342 348 350 358 355 346 8 26 4 313 296 275 214 249 250 248 268 274 234 215 205 243 291 176 146 128 127 102 120 118 177 188 147 192 129 251 197 172 155 163 187 191 194 196
324 332 337 339 349 354 359 306 310 346 328 278 289 213 251 270 249 259 248 202 202 206 230 288 170 135 129 128 126 179 159 167 186 186 127 179 222 172 181 182 184 193 197 201 203
315 323 331 328 328 335 345 344 294 306 351 288 314 316 275 279 275 290 190 175 171 196 259 283 139 134 150 171 187 159 123 158 151 181 174 159 229 216 205 201 211 203 204 207 213
338 315 321 324 326 327 338 353 342 290 345 327 320 284 289 341 308 32 118 141 151 170 230 258 319 179 170 181 139 143 131 148 134 155 150 218 238 215 207 204 221 226 216 215 218
343 339 316 320 329 337 343 26 5 300 315 286 324 319 345 354 350 28 123 133 124 181 191 191 70 79 133 115 152 151 174 143 61 107 115 324 262 244 182 214 218 223 220 221 221
341 343 339 320 326 337 348 17 345 339 271 296 321 349 353 17 19 12 44 122 157 167 186 192 102 154 143 135 153 159 173 167 136 131 42 117 261 246 228 220 224 230 232 222 221
333 340 345 340 332 338 343 348 3 329 52 309 346 7 348 343 2 29 45 122 122 138 146 173 258 173 169 176 172 163 173 153 134 149 211 189 263 221 206 212 210 222 222 221 217
325 331 340 348 332 332 329 334 355 257 37 309 319 329 338 71 304 14 35 62 84 74 154 148 202 181 163 177 167 317 156 151 163 149 175 183 264 235 136 226 229 224 220 221 217
319 321 328 336 332 328 327 330 15 39 309 334 312 335 339 6 34 359 43 68 80 53 54 86 27 19 62 60 136 138 83 49 60 57 247 198 194 232 179 210 231 219 219 215 208
312 318 315 320 324 326 329 334 31 90 312 332 322 342 342 350 17 18 33 32 65 118 63 35 26 55 34 84 27 113 126 28 136 189 243 350 205 253 247 240 228 215 212 212 203
298 308 310 303 312 328 331 46 60 255 256 306 308 325 11 348 50 21 28 40 47 15 98 110 147 5 350 24 130 145 161 155 184 195 176 2 236 244 266 280 253 243 217 212 199
275 294 302 292 299 321 320 38 204 196 195 277 14 2 358 359 351 21 44 37 39 346 120 134 79 314 46 48 347 141 119 85 104 38 69 208 276 287 8 278 297 200 193 194 195
263 275 286 273 268 315 69 236 225 184 177 289 124 64 336 345 1 14 12 342 2 13 17 110 94 8 11 355 33 60 130 98 24 161 231 245 258 246 325 285 230 192 190 188 192
255 250 224 219 215 258 164 221 238 241 187 174 200 157 211 188 59 5 358 333 344 3 40 82 81 20 101 161 162 131 150 73 123 173 178 303 260 211 255 261 248 208 193 189 189
220 203 187 175 98 349 158 195 247 249 205 260 169 178 204 173 171 215 201 159 250 167 104 93 106 103 68 359 352 53 155 160 175 202 240 137 274 220 269 270 245 190 190 193 191
204 184 169 171 199 259 295 260 244 195 211 207 215 198 195 187 129 204 216 324 188 239 145 196 91 102 36 354 357 225 189 199 133 95 207 160 257 192 329 30 158 174 190 193 188
181 146 131 186 210 142 160 191 234 216 267 214 274 169 158 159 220 177 170 303 134 114 38 113 151 189 180 162 134 201 203 195 181 163 183 212 282 281 276 328 162 184 193 192 192
209 206 176 174 248 167 166 135 152 233 232 211 281 237 171 132 89 180 135 107 24 131 86 108 155 345 47 55 7 228 180 191 208 215 196 212 213 246 235 219 208 198 195 198 200
206 157 176 147 144 118 192 216 179 191 150 254 190 205 210 159 183 196 142 188 176 69 121 33 204 110 354 23 34 300 250 208 218 233 247 260 279 244 264 223 211 208 202 206 209
211 197 212 155 155 121 211 188 199 147 226 207 198 125 175 223 136 96 93 85 110 146 132 101 129 73 279 358 350 325 226 205 196 222 211 206 243 215 267 234 241 245 232 224 220
Wind_Speed_850mb
37 37 32 28 28 27 24 21 21 21 20 24 26 21 25 25 40 43 42 48 47 53 37 67 60 55 60 49 28 33 8 6 8 9 9 5 4 5 8 26 10 12 19 20 60
30 34 36 36 33 30 27 24 25 29 31 27 29 33 35 30 40 55 58 46 51 67 42 86 70 58 33 27 24 11 15 15 1 4 7 10 2 12 8 14 5 10 16 39 62
28 33 37 41 39 34 31 31 31 33 31 35 34 33 33 29 26 46 32 44 53 73 43 79 82 58 22 26 15 6 26 13 7 3 10 5 3 7 18 6 10 16 35 60 63
24 33 37 41 38 34 29 30 33 29 30 30 20 24 25 27 13 3 11 33 48 63 70 30 75 36 15 22 28 14 27 27 19 2 17 1 4 5 10 5 8 11 36 66 64
23 33 36 37 37 36 34 35 29 26 28 24 18 18 28 31 33 22 16 32 43 52 53 42 75 46 24 29 23 10 11 31 28 12 25 14 3 6 6 3 8 20 43 62 59
24 29 33 35 38 36 33 36 29 29 21 16 22 15 30 19 32 33 32 25 51 54 48 46 65 52 37 28 24 17 18 20 18 14 16 7 3 3 2 1 13 29 46 56 53
23 25 29 32 39 39 31 32 22 22 12 19 11 23 25 33 21 21 33 22 33 57 31 45 64 43 45 15 27 29 15 6 10 6 5 3 5 3 1 5 16 31 43 51 48
21 25 25 29 36 47 30 17 22 25 21 16 16 23 16 24 44 40 26 27 38 74 50 56 61 43 21 49 15 10 9 17 7 13 1 6 8 3 7 11 17 26 38 43 45
21 23 24 24 29 39 39 22 28 34 29 11 14 23 11 19 32 43 31 30 39 46 50 41 73 15 28 20 11 7 9 20 8 7 7 4 5 6 12 13 18 24 34 38 40
22 23 24 24 24 33 38 38 23 13 20 10 13 13 14 13 27 20 26 36 53 52 49 19 11 9 12 25 29 16 13 11 9 18 7 8 8 6 14 20 23 27 32 33 41
26 25 24 26 28 35 36 28 11 2 11 6 17 16 33 24 13 22 25 58 52 45 22 1 6 22 36 27 16 20 13 15 4 10 9 14 19 19 28 23 27 31 29 34 39
29 29 26 28 29 27 28 16 11 9 14 13 18 21 22 25 15 46 29 14 31 18 15 9 3 6 21 16 17 31 26 8 7 7 4 5 29 14 19 18 40 45 41 39 36
32 33 31 26 27 21 23 23 18 10 3 12 14 14 24 19 18 29 17 22 29 21 29 9 1 9 11 16 20 10 28 12 11 10 5 5 13 19 12 25 31 42 46 41 44
32 31 34 27 15 24 15 28 17 7 6 14 13 10 22 10 9 30 15 13 7 14 20 4 4 28 13 13 11 10 13 22 28 18 8 12 12 14 22 20 19 52 53 49 51
35 33 30 28 22 18 20 25 13 1 10 15 15 18 15 8 6 21 27 28 13 12 10 4 3 21 30 18 23 0 3 24 15 12 4 10 6 6 8 13 24 46 63 58 54
32 32 32 27 24 21 21 21 2 10 5 13 10 14 9 14 9 14 14 22 9 14 23 7 5 7 6 9 9 24 11 15 8 6 11 14 16 9 12 20 18 40 67 72 58
32 30 31 29 22 23 24 9 10 11 6 12 7 10 7 11 11 13 10 10 5 9 5 5 7 5 13 14 7 10 13 3 2 7 12 4 14 23 14 16 23 32 53 71 63
37 34 28 29 24 21 21 9 12 7 10 3 6 5 14 15 8 10 5 7 11 9 7 6 5 13 12 6 6 13 12 9 11 9 5 3 13 11 8 21 40 38 48 67 64
34 31 32 22 21 13 9 8 12 11 4 5 3 8 6 5 7 5 6 6 7 6 7 8 4 6 11 8 5 5 6 6 9 4 5 8 10 21 2 10 8 16 40 60 69
34 22 35 19 8 5 7 8 4 5 4 1 2 0 5 8 10 9 7 5 4 11 11 4 10 6 6 7 21 9 7 8 1 9 9 6 8 9 8 9 11 15 32 55 67
35 12 13 9 5 1 5 12 7 8 4 6 6 3 4 1 1 5 5 5 3 5 8 5 6 4 2 1 8 5 4 5 3 3 6 3 9 10 13 12 15 22 41 59 72
28 4 15 17 1 3 4 9 1 5 6 5 4 6 8 9 4 3 3 2 3 3 4 2 7 6 3 1 4 4 3 7 5 8 5 3 11 6 15 15 17 29 45 56 68
15 11 20 24 5 4 7 4 5 5 7 5 10 8 5 7 3 5 4 3 5 2 5 6 1 7 3 4 5 7 9 5 1 5 9 8 8 2 9 6 11 30 43 56 67
18 5 7 18 7 13 7 5 7 5 6 4 5 5 8 9 6 11 8 0 5 5 6 4 3 7 9 7 10 10 17 23 8 6 8 11 13 15 10 7 8 22 38 53 66
23 9 12 8 9 8 8 8 7 6 6 4 4 11 11 6 3 9 4 4 3 4 5 6 4 2 5 9 1 5 9 26 24 20 14 16 23 30 7 11 11 24 34 48 66
22 12 12 14 13 12 8 14 19 8 14 9 9 8 9 10 11 13 10 7 7 5 5 4 3 3 6 7 9 5 12 20 31 16 30 24 31 19 39 14 15 24 38 55 70
39 28 19 20 10 10 11 13 18 15 14 8 16 9 6 9 10 12 14 15 8 11 6 5 8 5 8 8 6 11 20 27 12 10 17 17 17 3 9 17 38 45 46 59 67
Wind_Direction_850mb
34 27 17 5 352 347 358 349 348 339 327 322 318 305 287 278 277 270 257 238 237 222 187 183 177 177 185 182 172 168 111 201 209 196 124 320 145 158 128 145 162 174 162 175 159
21 12 6 352 344 344 340 329 321 315 311 302 289 286 286 289 271 276 259 238 236 229 242 178 173 163 160 164 162 148 174 199 218 251 108 298 80 165 152 150 139 153 171 166 164
11 6 1 357 348 338 328 326 322 318 311 308 285 272 264 266 281 267 271 238 236 233 239 189 174 168 150 161 139 140 189 157 190 266 117 23 213 173 149 226 200 184 163 167 170
357 356 359 359 355 350 342 336 332 325 325 327 301 281 232 214 224 213 234 214 226 233 235 214 177 177 149 154 154 145 190 156 174 41 102 201 200 154 188 173 206 196 178 172 177
342 350 356 358 359 357 356 346 331 337 332 300 305 287 207 199 235 238 293 225 220 227 238 245 180 181 167 160 134 135 146 149 139 115 67 132 173 165 162 300 195 177 177 180 183
345 349 355 1 358 354 352 349 334 331 332 323 282 225 181 229 246 245 264 243 216 233 237 269 184 181 158 152 160 148 135 137 156 112 83 106 332 219 73 148 158 175 181 185 189
345 349 356 0 358 355 333 341 348 323 320 334 319 220 226 230 235 245 266 254 234 226 244 282 177 167 145 114 120 131 118 102 189 130 98 179 142 172 101 144 162 177 188 191 190
335 342 348 350 358 355 346 8 26 4 313 296 275 214 249 250 248 268 274 234 215 205 243 291 176 146 128 127 102 120 118 177 188 147 192 129 251 197 172 155 163 187 191 194 196
324 332 337 339 349 354 359 306 310 346 328 278 289 213 251 270 249 259 248 202 202 206 230 288 170 135 129 128 126 179 159 167 186 186 127 179 222 172 181 182 184 193 197 201 203
315 323 331 328 328 335 345 344 294 306 351 288 314 316 275 279 275 290 190 175 171 196 259 283 139 134 150 171 187 159 123 158 151 181 174 159 229 216 205 201 211 203 204 207 213
338 315 321 324 326 327 338 353 342 290 345 327 320 284 289 341 308 32 118 141 151 170 230 258 319 179 170 181 139 143 131 148 134 155 150 218 238 215 207 204 221 226 216 215 218
343 339 316 320 329 337 343 26 5 300 315 286 324 319 345 354 350 28 123 133 124 181 191 191 70 79 133 115 152 151 174 143 61 107 115 324 262 244 182 214 218 223 220 221 221
341 343 339 320 326 337 348 17 345 339 271 296 321 349 353 17 19 12 44 122 157 167 186 192 102 154 143 135 153 159 173 167 136 131 42 117 261 246 228 220 224 230 232 222 221
333 340 345 340 332 338 343 348 3 329 52 309 346 7 348 343 2 29 45 122 122 138 146 173 258 173 169 176 172 163 173 153 134 149 211 189 263 221 206 212 210 222 222 221 217
325 331 340 348 332 332 329 334 355 257 37 309 319 329 338 71 304 14 35 62 84 74 154 148 202 181 163 177 167 317 156 151 163 149 175 183 264 235 136 226 229 224 220 221 217
319 321 328 336 332 328 327 330 15 39 309 334 312 335 339 6 34 359 43 68 80 53 54 86 27 19 62 60 136 138 83 49 60 57 247 198 194 232 179 210 231 219 219 215 208
312 318 315 320 324 326 329 334 31 90 312 332 322 342 342 350 17 18 33 32 65 118 63 35 26 55 34 84 27 113 126 28 136 189 243 350 205 253 247 240 228 215 212 212 203
298 308 310 303 312 328 331 46 60 255 256 306 308 325 11 348 50 21 28 40 47 15 98 110 147 5 350 24 130 145 161 155 184 195 176 2 236 244 266 280 253 243 217 212 199
275 294 302 292 299 321 320 38 204 196 195 277 14 2 358 359 351 21 44 37 39 346 120 134 79 314 46 48 347 141 119 85 104 38 69 208 276 287 8 278 297 200 193 194 195
263 275 286 273 268 315 69 236 225 184 177 289 124 64 336 345 1 14 12 342 2 13 17 110 94 8 11 355 33 60 130 98 24 161 231 245 258 246 325 285 230 192 190 188 192
255 250 224 219 215 258 164 221 238 241 187 174 200 157 211 188 59 5 358 333 344 3 40 82 81 20 101 161 162 131 150 73 123 173 178 303 260 211 255 261 248 208 193 189 189
220 203 187 175 98 349 158 195 247 249 205 260 169 178 204 173 171 215 201 159 250 167 104 93 106 103 68 359 352 53 155 160 175 202 240 137 274 220 269 270 245 190 190 193 191
204 184 169 171 199 259 295 260 244 195 211 207 215 198 195 187 129 204 216 324 188 239 145 196 91 102 36 354 357 225 189 199 133 95 207 160 257 192 329 30 158 174 190 193 188
181 146 131 186 210 142 160 191 234 216 267 214 274 169 158 159 220 177 170 303 134 114 38 113 151 189 180 162 134 201 203 195 181 163 183 212 282 281 276 328 162 184 193 192 192
209 206 176 174 248 167 166 135 152 233 232 211 281 237 171 132 89 180 135 107 24 131 86 108 155 345 47 55 7 228 180 191 208 215 196 212 213 246 235 219 208 198 195 198 200
206 157 176 147 144 118 192 216 179 191 150 254 190 205 210 159 183 196 142 188 176 69 121 33 204 110 354 23 34 300 250 208 218 233 247 260 279 244 264 223 211 208 202 206 209
211 197 212 155 155 121 211 188 199 147 226 207 198 125 175 223 136 96 93 85 110 146 132 101 129 73 279 358 350 325 226 205 196 222 211 206 243 215 267 234 241 245 232 224 220